Location: Boston
(42.3580°N, 71.0600°W)
Time: 04:14:39
(UTC-04:00)

ISS - Pass Details

Date: 11 October 2017
Orbit: 401 x 408 km, 51.6° (Epoch: 21 October)

Event Time Altitude Azimuth Distance (km) Brightness Sun altitude
Rises 20:26:51 0° 300° (WNW) 2,327 1.2 -26.2°
Reaches altitude 10° 20:28:58 10° 294° (WNW) 1,465 0.0 -26.6°
Enters shadow 20:30:27 23° 282° (WNW) 916 -1.4 -26.9°
